Location: Beeston
(52.7000°N, 0.8167°E)
Time: 08:28:35
(UTC+00:00)

Cosmos 1763 Rocket - Pass Details

Date: 15 May 2026
Orbit: 728 x 773 km, 74.0° (Epoch: 5 June)

Event Time Altitude Azimuth Distance (km) Brightness Sun altitude
Exits shadow 21:10:52 12° 159° (SSE) 2,191 5.3 -10.1°
Maximum altitude 21:15:01 30° 101° (ESE) 1,360 4.4 -10.5°
Drops below altitude 10° 21:19:33 10° 42° (NE) 2,321 6.1 -10.9°
Sets 21:22:10 0° 32° (NNE) 3,247 7.1 -11.2°
